This demonstration page uses our WeatherBlox Daily Observations layout. Learn more.

Left ArrowRight Arrow

41.86663, -103.66717

Hourly Observations for November 6, 2020

Temp ( °F °C ) Dew Point ( °F °C ) Humidity (%) Winds ( mph kmh ) Pressure ( in mb ) Visibility ( mi km ) Precip ( " mm )
12:53 am 00:53 Clear 41 5 30 -1.1 65 65 ENE 6 9 29.91 1013 10 16 0.00 0.00
1:53 am 01:53 Clear 37 2.8 30 -1.1 76 76 E 5 7 29.91 1013 10 16 0.00 0.00
2:53 am 02:53 Clear 36 2.2 28 -2.2 73 73 ENE 3 6 29.89 1012 10 16 0.00 0.00
3:53 am 03:53 Clear 34 1.1 28 -2.2 79 79 N 3 6 29.90 1012 10 16 0.00 0.00
4:53 am 04:53 Clear 32 0 27 -2.8 82 82 W 6 9 29.93 1014 10 16 0.00 0.00
5:53 am 05:53 Clear 32 0 27 -2.8 82 82 N 3 6 29.93 1014 10 16 0.00 0.00
6:53 am 06:53 Sunny 33 0.6 27 -2.8 78 78 Calm 29.92 1013 10 16 0.00 0.00
7:53 am 07:53 Sunny 40 4.4 32 0 73 73 Calm 29.91 1013 10 16 0.00 0.00
8:53 am 08:53 Sunny 46 7.8 33 0.6 61 61 ESE 6 9 29.92 1013 10 16 0.00 0.00
9:53 am 09:53 Sunny 51 10.6 35 1.7 54 54 SE 5 7 29.90 1013 10 16 0.00 0.00
10:53 am 10:53 Sunny 58 14.4 36 2.2 44 44 SE 5 7 29.84 1011 10 16 0.00 0.00
11:53 am 11:53 Sunny 67 19.4 35 1.7 31 31 ESE 5 7 29.78 1009 10 16 0.00 0.00
12:53 pm 12:53 Sunny 72 22.2 36 2.2 27 27 SE 7 11 29.74 1007 10 16 0.00 0.00
1:53 pm 13:53 Sunny 73 22.8 36 2.2 26 26 ESE 8 13 29.73 1007 10 16 0.00 0.00
2:53 pm 14:53 Sunny 71 21.7 38 3.3 30 30 ESE 9 15 29.72 1007 10 16 0.00 0.00
3:53 pm 15:53 Sunny 67 19.4 37 2.8 33 33 E 8 13 29.74 1007 10 16 0.00 0.00
4:53 pm 16:53 Clear 56 13.3 36 2.2 47 47 E 6 9 29.77 1008 10 16 0.00 0.00
5:53 pm 17:53 Clear 53 11.7 36 2.2 52 52 ENE 5 7 29.78 1009 10 16 0.00 0.00
6:53 pm 18:53 Clear 50 10 35 1.7 57 57 E 8 13 29.78 1008 10 16 0.00 0.00
7:53 pm 19:53 Clear 53 11.7 34 1.1 48 48 Calm 29.75 1007 10 16 0.00 0.00
8:53 pm 20:53 Clear 47 8.3 35 1.7 63 63 N 6 9 29.75 1007 10 16 0.00 0.00
9:53 pm 21:53 Clear 47 8.3 35 1.7 63 63 Calm 29.71 1006 10 16 0.00 0.00
10:53 pm 22:53 Clear 48 8.9 36 2.2 63 63 WNW 9 15 29.68 1005 10 16 0.00 0.00
11:53 pm 23:53 Clear 47 8.3 36 2.2 66 66 WNW 7 11 29.66 1005 10 16 0.00 0.00

Powered by AerisWeather